Custer, SD

1:38 AM MDT on October 19, 2017 (GMT -0600)
Custer County

Weather History for KCUT - July, 2013

Change the Weather History Date:

Thursday, July 4, 2013

  Actual Average Record
Temperature  
Mean Temperature 67 °F 64 °F  
Max Temperature 81 °F 78 °F 97 °F (1989)
Min Temperature 53 °F 51 °F 33 °F (1972)
Degree Days  
Heating Degree Days 0 3  
Month to date heating degree days 10 12  
Since 1 June heating degree days 203 232  
Since 1 July heating degree days 10 12  
Cooling Degree Days 2 2  
Month to date cooling degree days 3 8  
Year to date cooling degree days 14 34  
Since 1 June cooling degree days 12 33  
Growing Degree Days 16 (Base 50)    
Moisture  
Dew Point 51 °F    
Average Humidity 66    
Maximum Humidity 97    
Minimum Humidity 35    
Precipitation  
Precipitation 0.52 in 0.08 in 0.52 in (1958)
Month to date precipitation 0.63 0.30  
Year to date precipitation 8.81 10.63  
Sea Level Pressure  
Sea Level Pressure 29.85 in    
Wind  
Wind Speed 5 mph (NNW)    
Max Wind Speed 18 mph    
Max Gust Speed 36 mph    
Visibility 9 miles    
Events Rain    
T = Trace of Precipitation, MM = Missing Value Source: NWS Daily Summary

Daily Weather History Graph

Daily Weather History Graph

Search for Another Location

Airport or City:

Trip Planner

Search our weather history database for the weather conditions in past years. The results will help you decide how hot, cold, wet, or windy it might be!

Date:

Astronomy

Jul. 04, 2013 Rise Set
Actual Time 5:18 AM MDT 8:39 PM MDT
Civil Twilight 4:42 AM MDT 9:14 PM MDT
Nautical Twilight 3:56 AM MDT 10:01 PM MDT
Astronomical Twilight 2:58 AM MDT 10:58 PM MDT
Moon 2:39 AM MDT (7/4) 5:43 PM MDT (7/4)
Length of Visible Light 16h 32m
Length of Day
15h 20m
Waning Crescent, 11% of the Moon is Illuminated
Jul 4
Waning Crescent
Jul 8
New
Jul 15
First Quarter
Jul 22
Full
Jul 29
Last Quarter

Hourly Weather History & Observations

Time (MDT) Temp. Dew Point Humidity Pressure Visibility Wind Dir Wind Speed Gust Speed Precip Events Conditions
12:53 AM 55.9 °F 43.0 °F 62% 29.82 in 10.0 mi Calm Calm - N/A   Clear
1:53 AM 54.0 °F 42.1 °F 64% 29.81 in 10.0 mi NW 4.6 mph - N/A   Clear
2:53 AM 55.0 °F 42.1 °F 62% 29.79 in 10.0 mi WNW 5.8 mph - N/A   Clear
3:53 AM 57.0 °F 41.0 °F 55% 29.79 in 10.0 mi WNW 4.6 mph - N/A   Clear
4:53 AM 57.9 °F 39.9 °F 51% 29.79 in 10.0 mi NW 5.8 mph - N/A   Clear
5:53 AM 61.0 °F 43.0 °F 52% 29.79 in 10.0 mi NW 4.6 mph - N/A   Clear
6:53 AM 66.9 °F 46.0 °F 47% 29.79 in 10.0 mi Calm Calm - N/A   Clear
7:53 AM 73.9 °F 48.0 °F 40% 29.80 in 10.0 mi NW 3.5 mph - N/A   Clear
8:53 AM 79.0 °F 50.0 °F 36% 29.78 in 10.0 mi Variable 6.9 mph - N/A   Clear
9:53 AM 73.9 °F 48.9 °F 41% 29.83 in 10.0 mi North 3.5 mph - N/A   Scattered Clouds
10:53 AM 59.0 °F 53.1 °F 81% 29.93 in 5.0 mi NE 9.2 mph 20.7 mph 0.05 in Rain Light Rain
11:53 AM 62.1 °F 55.0 °F 78% 29.91 in 10.0 mi WNW 6.9 mph - 0.03 in   Clear
12:53 PM 69.1 °F 55.9 °F 63% 29.89 in 10.0 mi NE 3.5 mph - N/A   Mostly Cloudy
1:53 PM 73.0 °F 52.0 °F 48% 29.88 in 10.0 mi NE 9.2 mph - N/A   Scattered Clouds
2:53 PM 73.9 °F 48.9 °F 41% 29.86 in 10.0 mi Variable 3.5 mph - N/A   Mostly Cloudy
3:53 PM 79.0 °F 48.0 °F 34% 29.82 in 10.0 mi Calm Calm - N/A   Partly Cloudy
4:53 PM 66.9 °F 57.0 °F 70% 29.87 in 3.0 mi ESE 11.5 mph - 0.08 in Rain Heavy Rain
4:56 PM 64.4 °F 57.2 °F 77% 30.04 in 1.8 mi SE 9.2 mph - 0.08 in Rain Heavy Rain
5:11 PM 60.8 °F 59.0 °F 94% 30.04 in 3.0 mi SSE 6.9 mph - 0.36 in Rain Light Rain
5:53 PM 64.0 °F 57.9 °F 80% 29.85 in 10.0 mi South 4.6 mph - 0.36 in   Clear
6:53 PM 61.0 °F 57.9 °F 90% 29.86 in 10.0 mi WSW 3.5 mph - N/A   Scattered Clouds
7:53 PM 62.1 °F 59.0 °F 90% 29.84 in 10.0 mi Calm Calm - N/A   Scattered Clouds
8:53 PM 61.0 °F 59.0 °F 93% 29.81 in 10.0 mi North 3.5 mph - N/A   Mostly Cloudy
9:53 PM 59.0 °F 57.9 °F 96% 29.85 in 10.0 mi Calm Calm - N/A   Clear
10:53 PM 59.0 °F 57.0 °F 93% 29.90 in 10.0 mi Calm Calm - N/A   Clear
11:53 PM 59.0 °F 55.9 °F 90% 29.87 in 10.0 mi Calm Calm - N/A   Clear